Location: Newark
(25.0000°N, 73.5000°E)
Time: 00:55:37
(UTC+00:00)

RS-15 - Pass Details

Date: 24 February 2020
Orbit: 1898 x 2146 km, 64.8° (Epoch: 01 April)

Event Time Altitude Azimuth Distance (km) Brightness Sun altitude
Rises 23:29:22 0° 340° (NNW) 5,333 10.2 -28.8°
Reaches altitude 10° 23:32:48 10° 346° (NNW) 4,358 9.7 -28.0°
Maximum altitude 23:43:38 51° 60° (ENE) 2,409 8.7 -25.5°
Drops below altitude 10° 23:54:53 10° 134° (SE) 4,540 10.5 -23.0°
Sets 23:58:29 0° 139° (SE) 5,569 11.0 -22.2°
